This demonstration page uses our WeatherBlox Daily Observations layout. Learn more.

Left ArrowRight Arrow

Hourly Observations for March 25, 2022

Temp ( °F °C ) Dew Point ( °F °C ) Humidity (%) Winds ( mph kmh ) Pressure ( in mb ) Visibility ( mi km ) Precip ( " mm )
12:53 am 00:53 Clear 54 12.2 2 -16.7 12 12 SSW 9 15 29.96 1014 10 16 0.00 0.00
1:53 am 01:53 Clear 51 10.6 2 -16.7 13 13 SSE 6 9 29.96 1015 10 16 0.00 0.00
2:53 am 02:53 Clear 48 8.9 2 -16.7 15 15 Calm 29.97 1015 10 16 0.00 0.00
3:53 am 03:53 Clear 46 7.8 0 -17.8 14 14 NNW 3 6 29.97 1015 10 16 0.00 0.00
4:53 am 04:53 Clear 37 2.8 -2 -18.9 19 19 N 7 11 29.99 1016 10 16 0.00 0.00
5:53 am 05:53 Clear 36 2.2 -1 -18.3 20 20 N 6 9 30.00 1016 10 16 0.00 0.00
6:53 am 06:53 Clear 35 1.7 -2 -18.9 20 20 N 8 13 30.01 1016 10 16 0.00 0.00
7:53 am 07:53 Sunny 34 1.1 -1 -18.3 22 22 N 8 13 30.03 1017 10 16 0.00 0.00
8:53 am 08:53 Sunny 42 5.6 1 -17.2 18 18 N 5 7 30.06 1018 10 16 0.00 0.00
9:53 am 09:53 Sunny 54 12.2 1 -17.2 11 11 Calm 30.06 1018 10 16 0.00 0.00
10:53 am 10:53 Sunny 62 16.7 1 -17.2 8 8 Calm 30.07 1018 10 16 0.00 0.00
11:53 am 11:53 Sunny 68 20 3 -16.1 7 7 VRB 3 6 30.06 1018 10 16 0.00 0.00
12:53 pm 12:53 Sunny 74 23.3 4 -15.6 6 6 undefined N/A 30.04 1017 10 16 0.00 0.00
1:53 pm 13:53 Sunny 78 25.6 5 -15 6 6 undefined N/A 30.01 1016 10 16 0.00 0.00
2:53 pm 14:53 Sunny 81 27.2 5 -15 5 5 S 8 13 29.99 1016 10 16 0.00 0.00
3:53 pm 15:53 Sunny 83 28.3 7 -13.9 5 5 VRB 5 7 29.96 1015 10 16 0.00 0.00
4:53 pm 16:53 Sunny 84 28.9 6 -14.4 5 5 Calm 29.95 1014 10 16 0.00 0.00
5:53 pm 17:53 Sunny 84 28.9 6 -14.4 5 5 SSW 8 13 29.94 1014 10 16 0.00 0.00
6:53 pm 18:53 Sunny 82 27.8 6 -14.4 5 5 Calm 29.94 1014 10 16 0.00 0.00
7:53 pm 19:53 Sunny 80 26.7 6 -14.4 6 6 Calm 29.95 1014 10 16 0.00 0.00
8:53 pm 20:53 Clear 70 21.1 6 -14.4 8 8 SE 8 13 29.96 1015 10 16 0.00 0.00
9:53 pm 21:53 Clear 67 19.4 7 -13.9 9 9 SE 8 13 29.96 1015 10 16 0.00 0.00
10:53 pm 22:53 Clear 66 18.9 7 -13.9 10 10 ESE 7 11 29.96 1015 10 16 0.00 0.00
11:53 pm 23:53 Clear 63 17.2 6 -14.4 10 10 ESE 8 13 29.96 1015 10 16 0.00 0.00

Powered by AerisWeather